Chatham, MA

7:50 PM EDT on April 23, 2018 (GMT -0400)
Chatham Municipal

Weather History for KCQX - October, 2013

Change the Weather History Date:

Friday, October 4, 2013

  Actual Average Record
Temperature  
Mean Temperature 62 °F -  
Max Temperature 75 °F 62 °F 79 °F (2007)
Min Temperature 52 °F 47 °F 39 °F (1998)
Degree Days  
Heating Degree Days 3    
Growing Degree Days 12 (Base 50)    
Moisture  
Dew Point 54 °F    
Average Humidity 82    
Maximum Humidity 94    
Minimum Humidity 53    
Precipitation  
Precipitation 0.28 in - - ()
Sea Level Pressure  
Sea Level Pressure 30.06 in    
Wind  
Wind Speed 2 mph (NNW)    
Max Wind Speed 6 mph    
Max Gust Speed -    
Visibility 9 miles    
Events Rain    
Averages and records for this station are not official NWS values.
T = Trace of Precipitation, MM = Missing Value Source: NWS Daily Summary

Daily Weather History Graph

Daily Weather History Graph

Search for Another Location

Airport or City:

Astronomy

Oct. 04, 2013 Rise Set
Actual Time 6:40 AM EDT 6:16 PM EDT
Civil Twilight 6:12 AM EDT 6:43 PM EDT
Nautical Twilight 5:40 AM EDT 7:16 PM EDT
Astronomical Twilight 5:07 AM EDT 7:48 PM EDT
Moon 6:12 AM EDT (10/4) 5:56 PM EDT (10/4)
Length of Visible Light 12h 31m
Length of Day
11h 36m
Waning Crescent, 0% of the Moon is Illuminated
Oct 4
Waning Crescent
Oct 4
New
Oct 11
First Quarter
Oct 18
Full
Oct 26
Last Quarter

Hourly Weather History & Observations

Time (EDT) Temp. Dew Point Humidity Pressure Visibility Wind Dir Wind Speed Gust Speed Precip Events Conditions
12:52 AM 57.0 °F 54.0 °F 89% 30.07 in 10.0 mi WSW 3.5 mph - N/A   Clear
1:52 AM 55.9 °F 53.1 °F 90% 30.06 in 10.0 mi Calm Calm - N/A   Clear
2:52 AM 55.0 °F 52.0 °F 89% 30.06 in 10.0 mi WNW 3.5 mph - N/A   Clear
3:52 AM 53.1 °F 50.0 °F 89% 30.05 in 10.0 mi Calm Calm - N/A   Clear
4:52 AM 55.0 °F 51.1 °F 86% 30.05 in 10.0 mi WNW 3.5 mph - 0.01 in   Clear
5:52 AM 52.0 °F 48.9 °F 89% 30.06 in 10.0 mi Calm Calm - N/A   Clear
6:52 AM 52.0 °F 48.9 °F 89% 30.07 in 10.0 mi NW 3.5 mph - N/A   Clear
7:52 AM 60.1 °F 52.0 °F 75% 30.08 in 10.0 mi Calm Calm - N/A   Clear
8:52 AM 64.9 °F 52.0 °F 63% 30.08 in 10.0 mi NW 3.5 mph - N/A   Clear
9:52 AM 71.1 °F 54.0 °F 55% 30.09 in 10.0 mi Calm Calm - N/A   Partly Cloudy
10:52 AM 72.0 °F 57.0 °F 59% 30.08 in 10.0 mi Calm Calm - N/A   Overcast
11:52 AM 72.0 °F 54.0 °F 53% 30.07 in 10.0 mi Variable 3.5 mph - N/A   Overcast
12:52 PM 68.0 °F 52.0 °F 56% 30.06 in 10.0 mi Calm Calm - N/A   Overcast
1:52 PM 66.0 °F 55.9 °F 70% 30.06 in 10.0 mi NNW 3.5 mph - 0.00 in   Overcast
2:52 PM 63.0 °F 57.0 °F 81% 30.05 in 10.0 mi Variable 3.5 mph - 0.00 in   Mostly Cloudy
3:52 PM 61.0 °F 57.0 °F 87% 30.04 in 5.0 mi Calm Calm - 0.02 in Rain Rain
4:14 PM 59.0 °F 57.2 °F 94% 30.04 in 1.8 mi NNE 3.5 mph - 0.08 in Rain Heavy Rain
4:33 PM 57.2 °F 55.4 °F 94% 30.04 in 3.0 mi NNE 4.6 mph - 0.19 in Rain Rain
4:52 PM 57.9 °F 55.0 °F 90% 30.04 in 5.0 mi ENE 5.8 mph - 0.25 in Rain Light Rain
5:52 PM 59.0 °F 55.9 °F 90% 30.05 in 10.0 mi Calm Calm - 0.00 in Rain Light Rain
6:52 PM 60.1 °F 57.0 °F 90% 30.06 in 10.0 mi Calm Calm - 0.00 in   Overcast
7:52 PM 59.0 °F 57.0 °F 93% 30.06 in 10.0 mi Calm Calm - N/A   Overcast
8:52 PM 57.9 °F 55.9 °F 93% 30.08 in 10.0 mi Calm Calm - N/A   Mostly Cloudy
9:52 PM 59.0 °F 57.0 °F 93% 30.07 in 10.0 mi North 3.5 mph - N/A   Overcast
10:52 PM 60.1 °F 57.9 °F 93% 30.08 in 10.0 mi Calm Calm - N/A   Overcast
11:52 PM 61.0 °F 57.9 °F 90% 30.07 in 10.0 mi Calm Calm - N/A   Overcast